Regional Weather Roundup
Issued by NWS Mt. Holly, NJ

Home | Current Version | Previous Version | Text Only | Print | Product List | Glossary On
Versions: 1 2 3 4 5 6 7 8 9 10 11 12 13 14 15 16 17 18 19 20 21 22 23 24 25 26 27 28 29 30 31 32 33 34 35 36 37 38 39 40 41 42 43 44 45 46 47 48 49 50
000
ASUS41 KPHI 240510
RWRPHI

REGIONAL WEATHER ROUNDUP
NATIONAL WEATHER SERVICE MOUNT HOLLY NJ
100 AM EDT THU JUL 24 2014

NOTE:  "FAIR" INDICATES FEW OR NO CLOUDS BELOW 12,000 FEET WITH NO
SIGNIFICANT WEATHER AND/OR OBSTRUCTIONS TO VISIBILITY.

 * = STATION DOES NOT REPORT PRECIPITATION (E.G. RAIN, SNOW, ETC.)
        OR FOG.

NJZ015>026-240600-
SOUTHERN NEW JERSEY

CITY           SKY/WX    TMP DP  RH WIND       PRES   REMARKS
POMONA         CLOUDY    74  69  85 SW8       29.85R
RIO GRANDE*    CLOUDY    72  68  88 N3        29.84F
MILLVILLE      CLOUDY    72  70  93 CALM      29.85F
WRIGHTSTOWN    MOCLDY    73  71  94 W9        29.82F
MOUNT HOLLY    CLOUDY    73  71  93 CALM      29.84F FOG
TRENTON        MOCLDY    72  70  93 SW5       29.84R

$$
NJZ001>014-240600-
NORTHERN NEW JERSEY

CITY           SKY/WX    TMP DP  RH WIND       PRES   REMARKS
SUSSEX         MOCLDY    73  65  75 NW6       29.85F
ANDOVER*         N/A     71  65  81 N7        29.86S
MORRISTOWN     MOCLDY    75  68  78 N3        29.82S
NEWARK         CLOUDY    76  71  85 NW9       29.80F
TETERBORO      DRIZZLE   78  67  68 NW10      29.79F
CALDWELL       CLOUDY    74  67  78 NW3       29.82S
SOMERVILLE     MOCLDY    73  68  84 N6        29.82R
ALLAIRE*       MOCLDY    73  66  78 W7        29.82F
TOMS RIVER*    MOCLDY    73  68  83 CALM      29.83F

$$
PAZ043-044-047-054-055-060>062-066>071-240600-
EASTERN PENNSYLVANIA

CITY           SKY/WX    TMP DP  RH WIND       PRES   REMARKS
PHILADELPHIA   CLOUDY    74  67  78 CALM      29.85R
NORTH PHILA    MOCLDY    74  69  85 CALM      29.86S
BLUE BELL      PTCLDY    72  70  94 CALM      29.85S
DOYLESTOWN     PTCLDY    69  69 100 CALM      29.85R
QUAKERTOWN*    PTCLDY    70  68  94 W3        29.87F
POTTSTOWN      PTCLDY    72  68  87 N6        29.87S
LANCASTER      MOCLDY    69  68  96 E3        29.87S FOG
COATESVILLE    CLEAR     68  68 100 N3        29.88S
READING        MOCLDY    73  70  90 CALM      29.86S
ALLENTOWN      CLEAR     69  65  86 CALM      29.87S
MOUNT POCONO   MOCLDY    65  60  84 NW10G18   29.92S
HAZLETON       CLOUDY    66  61  82 NW8       29.96S
WILKES BARRE   CLOUDY    70  62  76 NW9       29.91S

$$
DEZALL-MDZ008-012-015-019-020-240600-
DELAWARE AND EASTERN MARYLAND

CITY           SKY/WX    TMP DP  RH WIND       PRES   REMARKS
WILMINGTON     PTCLDY    71  69  93 N5        29.86R
DOVER          CLOUDY    71  71 100 E2        29.84R
GEORGETOWN     LGT RAIN  74  71  91 E12       29.86S
EASTON         MOCLDY    74  74 100 CALM      29.88R
PATUXENT       MOCLDY    74  72  93 SW7       29.85F
OCEAN CITY     LGT RAIN  78  71  79 N6        29.85R
WALLOPS ISLAND MOCLDY    81  75  82 W6        29.85S
CAMBRIDGE      CLOUDY    73  70  88 S3        29.85R

$$
PAZ001-021-NYZ056-072-MDZ011-DCZ001-240600-
OTHER NEARBY LOCATIONS

CITY           SKY/WX    TMP DP  RH WIND       PRES   REMARKS
HARRISBURG     MOCLDY    76  67  73 N10       29.87R
STATE COLLEGE  MOCLDY    67  62  83 N5        29.95S
WILLIAMSPORT   CLOUDY    69  58  67 NW5       29.92R
BINGHAMTON     MOCLDY    63  60  90 N8        29.94S
NEW YORK CITY  CLOUDY    75  69  81 VRB3      29.83F
BALTIMORE      PTCLDY    74  72  93 SW3       29.85F
WASHINGTON DC  MOCLDY    80  70  71 CALM      29.86R

$$



USA.gov is the U.S. government's official web portal to all federal, state and local government web resources and services.